Location: Ch�tillon
(48.8024°N, 2.2935°E)
Time: 03:01:29
(UTC+00:00)

CAS-4A - Pass Details

Date: 07 July 2022
Orbit: 521 x 537 km, 43.0° (Epoch: 13 August)

Event Time Altitude Azimuth Distance (km) Brightness Sun altitude
Exits shadow 00:46:28 27° 140° (SE) 1,013 ? -17.7°
Drops below altitude 10° 00:49:02 10° 106° (ESE) 1,757 ? -17.6°
Sets 00:51:25 0° 96° (E) 2,648 ? -17.5°
